| time (UTC) | temp F | wind direction | speed knots | gust knots | rain 1hr in | rain 24hr in | rain mn in | humidity % | barometer mb |
| 20260508142016 | 75 | 332 | 0.0 | 1.7 | 0.00 | 0.00 | 0.00 | 84 | 1015.6 |
| 20260508141603 | 75 | 139 | 0.0 | 0.9 | 0.00 | 0.00 | 0.00 | 84 | 1015.6 |
| 20260508141059 | 75 | 267 | 0.0 | 1.7 | 0.00 | 0.00 | 0.00 | 85 | 1015.5 |
| 20260508140601 | 75 | 328 | 0.0 | 1.7 | 0.00 | 0.00 | 0.00 | 86 | 1015.5 |
| 20260508140502 | 75 | 309 | 0.0 | 1.7 | 0.00 | 0.00 | 0.00 | 86 | 1015.4 |
| 20260508140106 | 75 | 288 | 0.0 | 3.5 | 0.00 | 0.00 | 0.00 | 86 | 1015.3 |
| 20260508135657 | 75 | 119 | 0.0 | 3.5 | 0.00 | 0.00 | 0.00 | 87 | 1015.4 |
| 20260508135053 | 75 | 334 | 0.0 | 0.9 | 0.00 | 0.00 | 0.00 | 87 | 1015.3 |
| 20260508134549 | 75 | 349 | 0.0 | 0.9 | 0.00 | 0.00 | 0.00 | 87 | 1015.3 |
| 20260508134047 | 75 | 330 | 0.0 | 1.7 | 0.00 | 0.00 | 0.00 | 88 | 1015.3 |
| 20260508133549 | 75 | 318 | 0.0 | 1.7 | 0.00 | 0.00 | 0.00 | 88 | 1015.2 |
| 20260508133048 | 76 | 335 | 0.0 | 1.7 | 0.00 | 0.00 | 0.00 | 89 | 1015.2 |
| 20260508132546 | 76 | 344 | 0.0 | 0.0 | 0.00 | 0.00 | 0.00 | 90 | 1015.1 |
| 20260508132043 | 76 | 339 | 0.0 | 0.0 | 0.00 | 0.00 | 0.00 | 90 | 1015.0 |
| 20260508131547 | 76 | 338 | 0.0 | 0.0 | 0.00 | 0.00 | 0.00 | 90 | 1014.9 |
| 20260508131042 | 76 | 309 | 0.0 | 0.0 | 0.00 | 0.00 | 0.00 | 91 | 1014.9 |
| 20260508130541 | 76 | 311 | 0.0 | 0.9 | 0.00 | 0.00 | 0.00 | 91 | 1014.9 |
| 20260508130038 | 76 | 311 | 0.0 | 0.9 | 0.00 | 0.00 | 0.00 | 92 | 1014.8 |
| 20260508125554 | 76 | 286 | 0.0 | 0.9 | 0.00 | 0.00 | 0.00 | 92 | 1014.6 |
| 20260508125036 | 76 | 304 | 0.0 | 0.9 | 0.00 | 0.00 | 0.00 | 93 | 1014.7 |
| 20260508124644 | 76 | 234 | 0.0 | 0.9 | 0.00 | 0.00 | 0.00 | 93 | 1014.8 |
| 20260508124039 | 75 | 234 | 0.0 | 0.9 | 0.00 | 0.00 | 0.00 | 93 | 1014.7 |
| 20260508123534 | 75 | 234 | 0.0 | 0.0 | 0.00 | 0.00 | 0.00 | 93 | 1014.8 |
| 20260508123033 | 75 | 234 | 0.0 | 0.0 | 0.00 | 0.00 | 0.00 | 93 | 1014.8 |
| 20260508122531 | 75 | 234 | 0.0 | 0.0 | 0.00 | 0.00 | 0.00 | 93 | 1014.8 |
| 20260508122033 | 75 | 234 | 0.0 | 0.0 | 0.00 | 0.00 | 0.00 | 93 | 1014.7 |
| 20260508121531 | 74 | 234 | 0.0 | 0.9 | 0.00 | 0.00 | 0.00 | 93 | 1014.7 |
| 20260508121031 | 74 | 234 | 0.0 | 0.9 | 0.00 | 0.00 | 0.00 | 93 | 1014.7 |
| 20260508120526 | 74 | 245 | 0.0 | 0.0 | 0.00 | 0.00 | 0.00 | 93 | 1014.6 |
| 20260508120030 | 74 | 245 | 0.0 | 0.0 | 0.00 | 0.00 | 0.00 | 93 | 1014.5 |
| 20260508115519 | 74 | 245 | 0.0 | 0.0 | 0.00 | 0.00 | 0.00 | 93 | 1014.3 |
| 20260508115017 | 74 | 245 | 0.0 | 0.0 | 0.00 | 0.00 | 0.00 | 93 | 1014.2 |
| 20260508114517 | 74 | 245 | 0.0 | 0.0 | 0.00 | 0.00 | 0.00 | 93 | 1014.1 |
| 20260508114014 | 74 | 245 | 0.0 | 0.0 | 0.00 | 0.00 | 0.00 | 93 | 1014.0 |
| 20260508113513 | 74 | 245 | 0.0 | 0.0 | 0.00 | 0.00 | 0.00 | 92 | 1013.8 |
| 20260508113015 | 74 | 245 | 0.0 | 0.9 | 0.00 | 0.00 | 0.00 | 92 | 1014.0 |
| 20260508112516 | 74 | 245 | 0.0 | 0.9 | 0.00 | 0.00 | 0.00 | 92 | 1013.8 |
| 20260508112013 | 73 | 245 | 0.0 | 0.0 | 0.00 | 0.00 | 0.00 | 92 | 1013.9 |
| 20260508111511 | 73 | 245 | 0.0 | 0.0 | 0.00 | 0.00 | 0.00 | 92 | 1013.7 |
| 20260508111014 | 73 | 246 | 0.0 | 0.0 | 0.00 | 0.00 | 0.00 | 92 | 1013.6 |
| 20260508110508 | 73 | 246 | 0.0 | 0.0 | 0.00 | 0.00 | 0.00 | 92 | 1013.5 |
| 20260508110005 | 73 | 245 | 0.0 | 0.0 | 0.00 | 0.00 | 0.00 | 92 | 1013.5 |
| 20260508105505 | 73 | 246 | 0.0 | 0.0 | 0.00 | 0.00 | 0.00 | 92 | 1013.3 |
| 20260508105007 | 73 | 245 | 0.0 | 0.0 | 0.00 | 0.00 | 0.00 | 92 | 1013.0 |
| 20260508104503 | 73 | 245 | 0.0 | 0.0 | 0.00 | 0.00 | 0.00 | 92 | 1013.1 |
| 20260508104005 | 73 | 245 | 0.0 | 0.0 | 0.00 | 0.00 | 0.00 | 92 | 1013.3 |
| 20260508103502 | 73 | 246 | 0.0 | 0.0 | 0.00 | 0.00 | 0.00 | 93 | 1013.0 |
| 20260508103000 | 73 | 246 | 0.0 | 0.0 | 0.00 | 0.00 | 0.00 | 92 | 1012.9 |
| 20260508102503 | 72 | 246 | 0.0 | 0.0 | 0.00 | 0.00 | 0.00 | 92 | 1013.0 |
| 20260508102001 | 72 | 246 | 0.0 | 0.0 | 0.00 | 0.00 | 0.00 | 92 | 1012.9 |
| 20260508101600 | 72 | 245 | 0.0 | 0.0 | 0.00 | 0.00 | 0.00 | 92 | 1012.8 |
| 20260508101058 | 72 | 246 | 0.0 | 0.0 | 0.00 | 0.00 | 0.00 | 92 | 1012.8 |
| 20260508100600 | 72 | 246 | 0.0 | 0.0 | 0.00 | 0.00 | 0.00 | 92 | 1012.7 |
| 20260508100101 | 72 | 246 | 0.0 | 0.0 | 0.00 | 0.00 | 0.00 | 92 | 1012.5 |
| 20260508095555 | 72 | 246 | 0.0 | 0.0 | 0.00 | 0.00 | 0.00 | 92 | 1012.5 |
| 20260508095049 | 72 | 245 | 0.0 | 0.0 | 0.00 | 0.00 | 0.00 | 92 | 1012.5 |
| 20260508094548 | 73 | 246 | 0.0 | 0.0 | 0.00 | 0.00 | 0.00 | 92 | 1012.5 |
| 20260508094048 | 73 | 246 | 0.0 | 0.0 | 0.00 | 0.00 | 0.00 | 92 | 1012.4 |
| 20260508093555 | 73 | 246 | 0.0 | 0.0 | 0.00 | 0.00 | 0.00 | 92 | 1012.5 |
| 20260508093155 | 73 | 246 | 0.0 | 0.0 | 0.00 | 0.00 | 0.00 | 91 | 1012.5 |
| 20260508092535 | 73 | 246 | 0.0 | 0.0 | 0.00 | 0.00 | 0.00 | 91 | 1012.4 |
| 20260508092035 | 73 | 246 | 0.0 | 0.0 | 0.00 | 0.00 | 0.00 | 91 | 1012.4 |
| 20260508091543 | 73 | 245 | 0.0 | 0.0 | 0.00 | 0.00 | 0.00 | 91 | 1012.3 |
| 20260508091033 | 73 | 246 | 0.0 | 0.0 | 0.00 | 0.00 | 0.00 | 91 | 1012.4 |
| 20260508090533 | 73 | 245 | 0.0 | 0.0 | 0.00 | 0.00 | 0.00 | 91 | 1012.3 |
| 20260508090031 | 73 | 245 | 0.0 | 0.0 | 0.00 | 0.00 | 0.00 | 91 | 1012.3 |
| 20260508090012 | 73 | 246 | 0.0 | 0.0 | 0.00 | 0.00 | 0.00 | 91 | 1012.4 |
| 20260508085513 | 73 | 246 | 0.0 | 0.0 | 0.00 | 0.00 | 0.00 | 91 | 1012.4 |
| 20260508085012 | 74 | 245 | 0.0 | 0.9 | 0.00 | 0.00 | 0.00 | 91 | 1012.3 |
| 20260508084512 | 74 | 246 | 0.0 | 0.9 | 0.00 | 0.00 | 0.00 | 91 | 1012.2 |
| 20260508084010 | 74 | 240 | 0.0 | 0.9 | 0.00 | 0.00 | 0.00 | 91 | 1012.4 |
| 20260508083513 | 74 | 240 | 0.0 | 0.9 | 0.00 | 0.00 | 0.00 | 91 | 1012.3 |
| 20260508083011 | 74 | 242 | 0.0 | 1.7 | 0.00 | 0.00 | 0.00 | 90 | 1012.4 |
| 20260508082507 | 74 | 242 | 0.0 | 1.7 | 0.00 | 0.00 | 0.00 | 90 | 1012.3 |
| 20260508082006 | 74 | 239 | 0.0 | 0.0 | 0.00 | 0.00 | 0.00 | 90 | 1012.4 |
| 20260508081505 | 74 | 239 | 0.0 | 0.9 | 0.00 | 0.00 | 0.00 | 90 | 1012.3 |
| 20260508081008 | 74 | 239 | 0.0 | 0.9 | 0.00 | 0.00 | 0.00 | 90 | 1012.4 |
| 20260508080504 | 74 | 239 | 0.0 | 0.9 | 0.00 | 0.00 | 0.00 | 90 | 1012.4 |
| 20260508080007 | 74 | 239 | 0.0 | 0.9 | 0.00 | 0.00 | 0.00 | 90 | 1012.4 |
| 20260508075600 | 74 | 243 | 0.0 | 0.9 | 0.00 | 0.00 | 0.00 | 90 | 1012.4 |
| 20260508075101 | 75 | 219 | 0.0 | 0.9 | 0.00 | 0.00 | 0.00 | 90 | 1012.4 |
| 20260508074604 | 75 | 219 | 0.0 | 0.9 | 0.00 | 0.00 | 0.00 | 90 | 1012.4 |
| 20260508074059 | 75 | 231 | 0.0 | 0.9 | 0.00 | 0.00 | 0.00 | 90 | 1012.5 |
| 20260508073559 | 75 | 231 | 0.0 | 2.6 | 0.00 | 0.00 | 0.00 | 90 | 1012.5 |
| 20260508073056 | 75 | 229 | 0.0 | 2.6 | 0.00 | 0.00 | 0.00 | 89 | 1012.6 |
| 20260508072553 | 75 | 243 | 0.0 | 2.6 | 0.00 | 0.00 | 0.00 | 89 | 1012.5 |
| 20260508072053 | 75 | 237 | 0.0 | 3.5 | 0.00 | 0.00 | 0.00 | 89 | 1012.7 |
| 20260508071555 | 75 | 233 | 0.0 | 3.5 | 0.00 | 0.00 | 0.00 | 89 | 1012.7 |
| 20260508071047 | 75 | 273 | 0.9 | 3.5 | 0.00 | 0.00 | 0.00 | 89 | 1012.9 |
| 20260508070544 | 75 | 234 | 0.9 | 3.5 | 0.00 | 0.00 | 0.00 | 89 | 1012.8 |
| 20260508070044 | 75 | 246 | 0.0 | 1.7 | 0.00 | 0.00 | 0.00 | 89 | 1012.8 |
| 20260508065545 | 75 | 244 | 0.0 | 2.6 | 0.00 | 0.00 | 0.00 | 89 | 1012.8 |
| 20260508065041 | 75 | 245 | 0.0 | 2.6 | 0.00 | 0.00 | 0.00 | 89 | 1012.8 |
| 20260508064540 | 75 | 238 | 0.0 | 3.5 | 0.00 | 0.00 | 0.00 | 89 | 1012.9 |
| 20260508064038 | 76 | 238 | 0.0 | 3.5 | 0.00 | 0.00 | 0.00 | 89 | 1012.9 |
| 20260508063538 | 76 | 227 | 0.0 | 3.5 | 0.00 | 0.00 | 0.00 | 89 | 1012.9 |
| 20260508063040 | 76 | 214 | 0.0 | 2.6 | 0.00 | 0.00 | 0.00 | 89 | 1012.9 |
| 20260508062535 | 76 | 259 | 0.0 | 2.6 | 0.00 | 0.00 | 0.00 | 88 | 1013.1 |
| 20260508062149 | 76 | 288 | 0.0 | 2.6 | 0.00 | 0.00 | 0.00 | 88 | 1013.0 |
| 20260508061633 | 76 | 275 | 0.0 | 3.5 | 0.00 | 0.00 | 0.00 | 88 | 1013.1 |
| 20260508061033 | 76 | 257 | 0.9 | 3.5 | 0.00 | 0.00 | 0.00 | 88 | 1013.1 |
| 20260508060539 | 76 | 313 | 0.0 | 7.0 | 0.00 | 0.00 | 0.00 | 88 | 1013.0 |
| 20260508060028 | 76 | 229 | 0.9 | 7.0 | 0.00 | 0.00 | 0.00 | 88 | 1013.1 |
| 20260508055526 | 76 | 191 | 0.0 | 2.6 | 0.00 | 0.00 | 0.00 | 88 | 1013.1 |
| 20260508055028 | 76 | 236 | 0.0 | 2.6 | 0.00 | 0.00 | 0.00 | 87 | 1013.3 |
| 20260508054526 | 76 | 246 | 0.0 | 2.6 | 0.00 | 0.00 | 0.00 | 87 | 1013.3 |
| 20260508054024 | 76 | 243 | 0.0 | 2.6 | 0.00 | 0.00 | 0.00 | 87 | 1013.3 |
| 20260508053523 | 76 | 328 | 0.0 | 3.5 | 0.00 | 0.00 | 0.00 | 87 | 1013.3 |
| 20260508053021 | 77 | 264 | 0.0 | 2.6 | 0.00 | 0.00 | 0.00 | 87 | 1013.2 |
| 20260508052637 | 77 | 262 | 0.0 | 3.5 | 0.00 | 0.00 | 0.00 | 87 | 1013.2 |
| 20260508052019 | 77 | 229 | 0.9 | 4.3 | 0.00 | 0.00 | 0.00 | 87 | 1013.2 |
| 20260508051528 | 77 | 240 | 0.9 | 5.2 | 0.00 | 0.00 | 0.00 | 87 | 1013.2 |
| 20260508051018 | 77 | 243 | 1.7 | 5.2 | 0.00 | 0.00 | 0.00 | 87 | 1013.2 |
| 20260508050516 | 77 | 238 | 0.0 | 3.5 | 0.00 | 0.00 | 0.00 | 87 | 1013.2 |
| 20260508050013 | 77 | 233 | 0.0 | 7.8 | 0.00 | 0.00 | 0.00 | 87 | 1013.3 |
| 20260508045616 | 78 | 300 | 1.7 | 7.8 | 0.00 | 0.00 | 0.00 | 86 | 1013.4 |
| 20260508045052 | 78 | 249 | 1.7 | 7.8 | 0.00 | 0.00 | 0.00 | 86 | 1013.3 |
| 20260508044550 | 78 | 297 | 1.7 | 7.8 | 0.00 | 0.00 | 0.00 | 86 | 1013.3 |
| 20260508044053 | 78 | 245 | 1.7 | 7.8 | 0.00 | 0.00 | 0.00 | 86 | 1013.4 |
| 20260508043554 | 78 | 266 | 0.9 | 7.8 | 0.00 | 0.00 | 0.00 | 86 | 1013.5 |
| 20260508043103 | 78 | 292 | 1.7 | 3.5 | 0.00 | 0.00 | 0.00 | 86 | 1013.4 |
| 20260508042552 | 78 | 283 | 0.0 | 2.6 | 0.00 | 0.00 | 0.00 | 86 | 1013.3 |
| 20260508042045 | 78 | 283 | 0.0 | 5.2 | 0.00 | 0.00 | 0.00 | 85 | 1013.2 |
| 20260508041544 | 78 | 262 | 1.7 | 5.2 | 0.00 | 0.00 | 0.00 | 85 | 1013.3 |
| 20260508041046 | 78 | 221 | 0.9 | 6.1 | 0.00 | 0.00 | 0.00 | 85 | 1013.4 |
| 20260508040544 | 78 | 214 | 0.9 | 5.2 | 0.00 | 0.00 | 0.00 | 84 | 1013.4 |
| 20260508040044 | 78 | 243 | 0.9 | 7.8 | 0.00 | 0.00 | 0.00 | 84 | 1013.3 |
| 20260508035539 | 78 | 296 | 2.6 | 8.7 | 0.00 | 0.00 | 0.00 | 84 | 1013.2 |
| 20260508035038 | 79 | 276 | 2.6 | 8.7 | 0.00 | 0.00 | 0.00 | 83 | 1013.3 |
| 20260508034539 | 79 | 224 | 0.0 | 7.0 | 0.00 | 0.00 | 0.00 | 83 | 1013.3 |
| 20260508034036 | 79 | 293 | 0.9 | 5.2 | 0.00 | 0.00 | 0.00 | 83 | 1013.1 |
| 20260508033539 | 79 | 246 | 0.0 | 5.2 | 0.00 | 0.00 | 0.00 | 83 | 1013.2 |
| 20260508033038 | 79 | 267 | 0.9 | 6.1 | 0.00 | 0.00 | 0.00 | 82 | 1013.2 |
| 20260508032538 | 79 | 265 | 0.0 | 6.1 | 0.00 | 0.00 | 0.00 | 82 | 1013.2 |
| 20260508032005 | 79 | 263 | 0.0 | 5.2 | 0.00 | 0.00 | 0.00 | 82 | 1013.1 |
| 20260508031508 | 79 | 247 | 0.0 | 5.2 | 0.00 | 0.00 | 0.00 | 81 | 1013.1 |
| 20260508031005 | 80 | 289 | 0.0 | 6.1 | 0.00 | 0.00 | 0.00 | 80 | 1013.0 |
| 20260508030503 | 80 | 275 | 0.0 | 6.1 | 0.00 | 0.00 | 0.00 | 80 | 1013.0 |
| 20260508030003 | 80 | 141 | 1.7 | 6.1 | 0.00 | 0.00 | 0.00 | 80 | 1012.9 |
| 20260508025510 | 80 | 277 | 0.0 | 7.8 | 0.00 | 0.00 | 0.00 | 79 | 1012.9 |
| 20260508025003 | 80 | 269 | 0.9 | 6.1 | 0.00 | 0.00 | 0.00 | 79 | 1012.8 |
| 20260508023558 | 81 | 275 | 0.9 | 5.2 | 0.00 | 0.00 | 0.00 | 78 | 1012.7 |
| 20260508023101 | 81 | 295 | 0.9 | 6.1 | 0.00 | 0.00 | 0.00 | 77 | 1012.9 |
| 20260508022057 | 81 | 229 | 0.9 | 3.5 | 0.00 | 0.00 | 0.00 | 75 | 1012.7 |
| 20260508021550 | 81 | 217 | 0.9 | 2.6 | 0.00 | 0.00 | 0.00 | 74 | 1012.6 |
| 20260508021049 | 81 | 321 | 0.0 | 5.2 | 0.00 | 0.00 | 0.00 | 73 | 1012.6 |
| 20260508020551 | 81 | 305 | 0.9 | 5.2 | 0.00 | 0.00 | 0.00 | 73 | 1012.6 |
| 20260508020048 | 81 | 250 | 0.0 | 3.5 | 0.00 | 0.00 | 0.00 | 72 | 1012.5 |
| 20260508015548 | 82 | 259 | 0.0 | 3.5 | 0.00 | 0.00 | 0.00 | 72 | 1012.5 |
| 20260508015051 | 82 | 243 | 0.0 | 2.6 | 0.00 | 0.00 | 0.00 | 72 | 1012.4 |
| 20260508014547 | 82 | 256 | 0.0 | 1.7 | 0.00 | 0.00 | 0.00 | 71 | 1012.3 |
| 20260508014050 | 82 | 248 | 0.0 | 2.6 | 0.00 | 0.00 | 0.00 | 70 | 1012.3 |
| 20260508013546 | 83 | 230 | 0.0 | 5.2 | 0.00 | 0.00 | 0.00 | 69 | 1012.2 |
| 20260508013047 | 83 | 243 | 1.7 | 5.2 | 0.00 | 0.00 | 0.00 | 70 | 1012.3 |
| 20260508012550 | 83 | 227 | 0.0 | 5.2 | 0.00 | 0.00 | 0.00 | 69 | 1012.4 |
| 20260508012031 | 83 | 272 | 0.9 | 4.3 | 0.00 | 0.00 | 0.00 | 69 | 1012.2 |
| 20260508011530 | 83 | 192 | 0.0 | 4.3 | 0.00 | 0.00 | 0.00 | 69 | 1012.0 |
| 20260508011026 | 83 | 239 | 1.7 | 4.3 | 0.00 | 0.00 | 0.00 | 68 | 1012.0 |
| 20260508010528 | 83 | 250 | 0.9 | 3.5 | 0.00 | 0.00 | 0.00 | 67 | 1011.7 |
| 20260508010029 | 83 | 244 | 0.9 | 3.5 | 0.00 | 0.00 | 0.00 | 67 | 1011.8 |
| 20260508005527 | 84 | 264 | 0.0 | 4.3 | 0.00 | 0.00 | 0.00 | 67 | 1011.9 |
| 20260508005001 | 84 | 304 | 0.9 | 5.2 | 0.00 | 0.00 | 0.00 | 66 | 1011.7 |
| 20260508004603 | 84 | 232 | 0.9 | 5.2 | 0.00 | 0.00 | 0.00 | 65 | 1011.7 |
| 20260508004107 | 84 | 256 | 0.9 | 6.1 | 0.00 | 0.00 | 0.00 | 65 | 1011.5 |
| 20260508003557 | 84 | 243 | 0.9 | 4.3 | 0.00 | 0.00 | 0.00 | 65 | 1011.6 |
| 20260508002603 | 85 | 221 | 0.9 | 5.2 | 0.00 | 0.00 | 0.00 | 64 | 1011.7 |
| 20260508002057 | 85 | 243 | 0.9 | 4.3 | 0.00 | 0.00 | 0.00 | 62 | 1011.7 |
| 20260508001555 | 85 | 133 | 0.0 | 4.3 | 0.00 | 0.00 | 0.00 | 61 | 1011.5 |
| 20260508001054 | 85 | 251 | 0.0 | 7.0 | 0.00 | 0.00 | 0.00 | 61 | 1011.8 |
| 20260508000556 | 85 | 256 | 0.0 | 7.0 | 0.00 | 0.00 | 0.00 | 61 | 1011.7 |
| 20260508000052 | 86 | 312 | 1.7 | 7.0 | 0.00 | 0.00 | 0.00 | 60 | 1011.7 |
| 20260507235655 | 86 | 237 | 2.6 | 7.0 | 0.00 | 0.00 | 0.00 | 59 | 1011.7 |
| 20260507235051 | 86 | 225 | 0.0 | 4.3 | 0.00 | 0.00 | 0.00 | 61 | 1011.7 |
| 20260507234554 | 86 | 221 | 0.0 | 5.2 | 0.00 | 0.00 | 0.00 | 60 | 1011.7 |
| 20260507234052 | 86 | 250 | 0.9 | 5.2 | 0.00 | 0.00 | 0.00 | 60 | 1011.5 |
| 20260507233552 | 87 | 262 | 1.7 | 4.3 | 0.00 | 0.00 | 0.00 | 59 | 1011.4 |
| 20260507233047 | 87 | 245 | 0.9 | 3.5 | 0.00 | 0.00 | 0.00 | 58 | 1011.4 |
| 20260507232547 | 87 | 253 | 0.9 | 4.3 | 0.00 | 0.00 | 0.00 | 57 | 1011.3 |
| 20260507232046 | 87 | 231 | 1.7 | 4.3 | 0.00 | 0.00 | 0.00 | 57 | 1011.2 |
| 20260507231550 | 87 | 248 | 0.9 | 4.3 | 0.00 | 0.00 | 0.00 | 56 | 1011.2 |
| 20260507231050 | 87 | 234 | 0.0 | 4.3 | 0.00 | 0.00 | 0.00 | 55 | 1011.3 |
| 20260507230543 | 88 | 251 | 0.9 | 5.2 | 0.00 | 0.00 | 0.00 | 54 | 1011.2 |
| 20260507230042 | 88 | 243 | 1.7 | 5.2 | 0.00 | 0.00 | 0.00 | 54 | 1011.1 |
| 20260507225544 | 88 | 248 | 0.9 | 5.2 | 0.00 | 0.00 | 0.00 | 55 | 1011.1 |
| 20260507225041 | 88 | 224 | 1.7 | 5.2 | 0.00 | 0.00 | 0.00 | 56 | 1011.0 |
| 20260507224541 | 88 | 240 | 1.7 | 4.3 | 0.00 | 0.00 | 0.00 | 58 | 1011.1 |
| 20260507224154 | 89 | 233 | 1.7 | 4.3 | 0.00 | 0.00 | 0.00 | 57 | 1010.9 |
| 20260507223539 | 89 | 225 | 0.0 | 4.3 | 0.00 | 0.00 | 0.00 | 58 | 1010.6 |
| 20260507223036 | 89 | 264 | 1.7 | 5.2 | 0.00 | 0.00 | 0.00 | 57 | 1010.5 |
| 20260507222536 | 88 | 241 | 1.7 | 7.0 | 0.00 | 0.00 | 0.00 | 57 | 1010.6 |
| 20260507222039 | 88 | 259 | 2.6 | 7.0 | 0.00 | 0.00 | 0.00 | 58 | 1010.7 |
| 20260507221534 | 88 | 67 | 1.7 | 5.2 | 0.00 | 0.00 | 0.00 | 58 | 1010.6 |
| 20260507221037 | 88 | 255 | 1.7 | 7.0 | 0.00 | 0.00 | 0.00 | 59 | 1010.7 |
| 20260507220534 | 88 | 235 | 1.7 | 7.0 | 0.00 | 0.00 | 0.00 | 59 | 1010.8 |
| 20260507220032 | 88 | 253 | 2.6 | 6.1 | 0.00 | 0.00 | 0.00 | 58 | 1010.8 |
| 20260507215534 | 88 | 169 | 1.7 | 7.0 | 0.00 | 0.00 | 0.00 | 59 | 1010.8 |
| 20260507215030 | 89 | 222 | 1.7 | 7.0 | 0.00 | 0.00 | 0.00 | 58 | 1010.8 |
| 20260507214536 | 89 | 252 | 1.7 | 5.2 | 0.00 | 0.00 | 0.00 | 57 | 1011.0 |
| 20260507214027 | 89 | 304 | 2.6 | 7.0 | 0.00 | 0.00 | 0.00 | 58 | 1010.9 |
| 20260507213529 | 89 | 276 | 2.6 | 7.0 | 0.00 | 0.00 | 0.00 | 57 | 1010.8 |
| 20260507213031 | 89 | 233 | 1.7 | 6.1 | 0.00 | 0.00 | 0.00 | 58 | 1010.7 |
| 20260507212530 | 89 | 279 | 0.9 | 6.1 | 0.00 | 0.00 | 0.00 | 59 | 1011.0 |
| 20260507212125 | 88 | 245 | 0.9 | 6.1 | 0.00 | 0.00 | 0.00 | 61 | 1011.1 |
| 20260507211525 | 88 | 202 | 1.7 | 5.2 | 0.00 | 0.00 | 0.00 | 60 | 1011.0 |
| 20260507211026 | 87 | 230 | 0.9 | 5.2 | 0.00 | 0.00 | 0.00 | 64 | 1011.4 |
| 20260507210524 | 87 | 302 | 1.7 | 5.2 | 0.00 | 0.00 | 0.00 | 63 | 1011.6 |
| 20260507210023 | 87 | 212 | 1.7 | 7.0 | 0.00 | 0.00 | 0.00 | 62 | 1011.7 |
| 20260507205519 | 87 | 232 | 2.6 | 7.0 | 0.00 | 0.00 | 0.00 | 63 | 1011.7 |
| 20260507205018 | 87 | 215 | 0.9 | 4.3 | 0.00 | 0.00 | 0.00 | 65 | 1012.0 |
| 20260507204516 | 86 | 254 | 1.7 | 7.8 | 0.00 | 0.00 | 0.00 | 68 | 1012.1 |
| 20260507204014 | 86 | 253 | 1.7 | 7.8 | 0.00 | 0.00 | 0.00 | 69 | 1012.3 |
| 20260507203521 | 85 | 166 | 0.9 | 7.8 | 0.00 | 0.00 | 0.00 | 68 | 1012.4 |
| 20260507203014 | 86 | 281 | 2.6 | 7.8 | 0.00 | 0.00 | 0.00 | 68 | 1012.6 |
| 20260507202510 | 86 | 248 | 0.9 | 3.5 | 0.00 | 0.00 | 0.00 | 69 | 1012.6 |
| 20260507202111 | 85 | 256 | 0.9 | 3.5 | 0.00 | 0.00 | 0.00 | 70 | 1012.6 |
| 20260507201510 | 84 | 259 | 0.0 | 5.2 | 0.00 | 0.00 | 0.00 | 70 | 1012.6 |
| 20260507201019 | 84 | 226 | 0.9 | 7.0 | 0.00 | 0.00 | 0.00 | 70 | 1012.6 |
| 20260507200512 | 84 | 224 | 1.7 | 7.0 | 0.00 | 0.00 | 0.00 | 70 | 1012.6 |
| 20260507200010 | 84 | 267 | 2.6 | 6.1 | 0.00 | 0.00 | 0.00 | 68 | 1012.5 |
| 20260507195507 | 85 | 235 | 1.7 | 6.1 | 0.00 | 0.00 | 0.00 | 69 | 1012.6 |
| 20260507195011 | 85 | 229 | 1.7 | 7.0 | 0.00 | 0.00 | 0.00 | 67 | 1012.9 |
| 20260507194504 | 85 | 275 | 1.7 | 7.8 | 0.00 | 0.00 | 0.00 | 68 | 1013.0 |
| 20260507194004 | 86 | 293 | 4.3 | 7.8 | 0.00 | 0.00 | 0.00 | 68 | 1013.1 |
| 20260507193513 | 86 | 241 | 0.9 | 7.8 | 0.00 | 0.00 | 0.00 | 67 | 1013.4 |
| 20260507193003 | 86 | 311 | 0.9 | 7.0 | 0.00 | 0.00 | 0.00 | 66 | 1013.6 |
| 20260507192607 | 86 | 245 | 1.7 | 7.0 | 0.00 | 0.00 | 0.00 | 65 | 1013.5 |
| 20260507192100 | 87 | 252 | 0.9 | 3.5 | 0.00 | 0.00 | 0.00 | 65 | 1013.6 |
| 20260507192002 | 87 | 313 | 0.9 | 3.5 | 0.00 | 0.00 | 0.00 | 64 | 1013.6 |
| 20260507191600 | 88 | 324 | 0.9 | 3.5 | 0.00 | 0.00 | 0.00 | 63 | 1013.8 |
| 20260507191058 | 88 | 278 | 0.9 | 5.2 | 0.00 | 0.00 | 0.00 | 60 | 1013.5 |
| 20260507190700 | 88 | 282 | 0.9 | 5.2 | 0.00 | 0.00 | 0.00 | 60 | 1013.4 |
| 20260507185559 | 88 | 316 | 0.9 | 5.2 | 0.00 | 0.00 | 0.00 | 60 | 1013.5 |
| 20260507185054 | 88 | 302 | 0.9 | 3.5 | 0.00 | 0.00 | 0.00 | 60 | 1013.6 |
| 20260507184554 | 89 | 233 | 0.9 | 4.3 | 0.00 | 0.00 | 0.00 | 59 | 1013.7 |
| 20260507184054 | 88 | 269 | 0.9 | 4.3 | 0.00 | 0.00 | 0.00 | 61 | 1013.8 |
| 20260507183551 | 88 | 327 | 0.9 | 5.2 | 0.00 | 0.00 | 0.00 | 59 | 1013.8 |
| 20260507183052 | 88 | 261 | 1.7 | 5.2 | 0.00 | 0.00 | 0.00 | 59 | 1013.8 |
| 20260507182552 | 88 | 269 | 0.9 | 4.3 | 0.00 | 0.00 | 0.00 | 58 | 1013.8 |
| 20260507182048 | 89 | 241 | 0.9 | 2.6 | 0.00 | 0.00 | 0.00 | 57 | 1013.9 |
| 20260507181552 | 89 | 251 | 0.0 | 2.6 | 0.00 | 0.00 | 0.00 | 57 | 1013.7 |
| 20260507181050 | 89 | 209 | 0.0 | 6.1 | 0.00 | 0.00 | 0.00 | 56 | 1013.8 |
| 20260507180549 | 89 | 319 | 0.9 | 6.1 | 0.00 | 0.00 | 0.00 | 54 | 1014.1 |
| 20260507180049 | 90 | 248 | 0.9 | 3.5 | 0.00 | 0.00 | 0.00 | 55 | 1014.2 |
| 20260507175545 | 90 | 320 | 0.0 | 2.6 | 0.00 | 0.00 | 0.00 | 53 | 1014.1 |
| 20260507175047 | 91 | 332 | 0.0 | 4.3 | 0.00 | 0.00 | 0.00 | 52 | 1014.1 |
| 20260507174550 | 92 | 230 | 0.0 | 4.3 | 0.00 | 0.00 | 0.00 | 53 | 1014.4 |
| 20260507174044 | 92 | 207 | 0.9 | 10.4 | 0.00 | 0.00 | 0.00 | 54 | 1014.4 |
| 20260507173546 | 92 | 283 | 4.3 | 10.4 | 0.00 | 0.00 | 0.00 | 53 | 1014.5 |
| 20260507173147 | 94 | 245 | 1.7 | 4.3 | 0.00 | 0.00 | 0.00 | 49 | 1014.5 |
| 20260507172544 | 94 | 310 | 0.0 | 4.3 | 0.00 | 0.00 | 0.00 | 53 | 1014.6 |
| 20260507172042 | 94 | 212 | 1.7 | 5.2 | 0.00 | 0.00 | 0.00 | 51 | 1014.4 |
| 20260507171550 | 94 | 288 | 0.9 | 5.2 | 0.00 | 0.00 | 0.00 | 52 | 1014.5 |
| 20260507171036 | 94 | 340 | 0.9 | 4.3 | 0.00 | 0.00 | 0.00 | 57 | 1014.6 |
| 20260507170538 | 93 | 137 | 0.0 | 4.3 | 0.00 | 0.00 | 0.00 | 57 | 1014.5 |
| 20260507170034 | 93 | 259 | 0.9 | 3.5 | 0.00 | 0.00 | 0.00 | 56 | 1014.6 |
| 20260507165533 | 92 | 143 | 0.9 | 4.3 | 0.00 | 0.00 | 0.00 | 60 | 1014.5 |
| 20260507165134 | 92 | 245 | 0.9 | 4.3 | 0.00 | 0.00 | 0.00 | 59 | 1014.5 |
| 20260507164530 | 91 | 281 | 0.9 | 4.3 | 0.00 | 0.00 | 0.00 | 59 | 1014.6 |
| 20260507164029 | 92 | 219 | 0.9 | 5.2 | 0.00 | 0.00 | 0.00 | 61 | 1014.4 |
| 20260507163528 | 92 | 236 | 1.7 | 6.1 | 0.00 | 0.00 | 0.00 | 61 | 1014.5 |
| 20260507163029 | 92 | 118 | 1.7 | 6.1 | 0.00 | 0.00 | 0.00 | 60 | 1014.5 |
| 20260507162528 | 92 | 335 | 0.9 | 3.5 | 0.00 | 0.00 | 0.00 | 61 | 1014.5 |
| 20260507162025 | 91 | 250 | 0.9 | 4.3 | 0.00 | 0.00 | 0.00 | 62 | 1014.6 |
| 20260507161524 | 91 | 120 | 1.7 | 4.3 | 0.00 | 0.00 | 0.00 | 61 | 1014.6 |
| 20260507161023 | 91 | 319 | 0.9 | 3.5 | 0.00 | 0.00 | 0.00 | 61 | 1014.8 |
| 20260507160518 | 91 | 219 | 0.0 | 4.3 | 0.00 | 0.00 | 0.00 | 61 | 1014.7 |
| 20260507160013 | 91 | 231 | 0.0 | 4.3 | 0.00 | 0.00 | 0.00 | 61 | 1014.8 |
| 20260507155511 | 90 | 238 | 0.9 | 4.3 | 0.00 | 0.00 | 0.00 | 64 | 1015.0 |
| 20260507155111 | 90 | 56 | 0.0 | 4.3 | 0.00 | 0.00 | 0.00 | 64 | 1015.0 |
| 20260507154515 | 89 | 274 | 0.9 | 7.8 | 0.00 | 0.00 | 0.00 | 64 | 1015.2 |
| 20260507154007 | 89 | 255 | 3.5 | 7.8 | 0.00 | 0.00 | 0.00 | 65 | 1015.1 |
| 20260507153505 | 88 | 245 | 1.7 | 4.3 | 0.00 | 0.00 | 0.00 | 65 | 1015.0 |
| 20260507153005 | 87 | 304 | 0.9 | 4.3 | 0.00 | 0.00 | 0.00 | 66 | 1014.9 |
| 20260507152508 | 87 | 275 | 0.9 | 3.5 | 0.00 | 0.00 | 0.00 | 66 | 1014.9 |
| 20260507152005 | 87 | 219 | 0.9 | 3.5 | 0.00 | 0.00 | 0.00 | 65 | 1014.8 |
| 20260507151501 | 87 | 238 | 0.0 | 3.5 | 0.00 | 0.00 | 0.00 | 70 | 1014.7 |
| 20260507151101 | 87 | 72 | 0.0 | 5.2 | 0.00 | 0.00 | 0.00 | 71 | 1014.7 |
| 20260507150559 | 86 | 257 | 1.7 | 5.2 | 0.00 | 0.00 | 0.00 | 67 | 1014.6 |
| 20260507150058 | 87 | 238 | 1.7 | 4.3 | 0.00 | 0.00 | 0.00 | 66 | 1014.4 |
| 20260507145559 | 86 | 315 | 0.9 | 2.6 | 0.00 | 0.00 | 0.00 | 67 | 1014.4 |
| 20260507145054 | 86 | 262 | 0.9 | 3.5 | 0.00 | 0.00 | 0.00 | 70 | 1014.4 |
| 20260507144615 | 85 | 233 | 0.9 | 3.5 | 0.00 | 0.00 | 0.00 | 70 | 1014.2 |
| 20260507144056 | 84 | 121 | 0.0 | 3.5 | 0.00 | 0.00 | 0.00 | 74 | 1014.2 |
| 20260507143550 | 84 | 66 | 0.9 | 4.3 | 0.00 | 0.00 | 0.00 | 72 | 1014.3 |
| 20260507143049 | 83 | 104 | 1.7 | 4.3 | 0.00 | 0.00 | 0.00 | 72 | 1014.5 |
| 20260507142547 | 83 | 256 | 0.0 | 2.6 | 0.00 | 0.00 | 0.00 | 75 | 1014.5 |